QPF
0.01 0.02 0.02 0.01 0.02 0.04 0.04 0.03 0.03 0.03 0.03 0.03 0.02 0.02 0.02 0.02 0.02 0.02 0.03 0.07 0.12 0.13 0.13 0.13 0.11 0.11 0.09 0.08 0.08 0.07 0.08 0.08 0.07 0.05 0.06 0.06 0.06 0.06 0.05 0.05 0.04 0.04 0.05
0.01 0.01 0.02 0.01 0.02 0.03 0.04 0.04 0.04 0.03 0.03 0.02 0.02 0.01 0.02 0.01 0.01 0.01 0.01 0.03 0.06 0.08 0.09 0.10 0.09 0.09 0.08 0.08 0.08 0.09 0.10 0.11 0.10 0.07 0.06 0.05 0.04 0.04 0.04 0.04 0.04 0.04 0.05
0.02 0.02 0.02 0.03 0.04 0.03 0.04 0.03 0.03 0.02 0.02 0.02 0.01 0.01 0.01 0.01 0.00 0.01 0.01 0.02 0.02 0.04 0.06 0.08 0.08 0.08 0.07 0.08 0.08 0.09 0.10 0.15 0.12 0.08 0.05 0.04 0.04 0.03 0.03 0.04 0.04 0.04 0.05
0.02 0.02 0.01 0.02 0.03 0.02 0.02 0.02 0.02 0.01 0.01 0.01 0.01 0.01 0.01 0.01 0.00 0.01 0.01 0.02 0.01 0.03 0.05 0.07 0.08 0.08 0.08 0.07 0.07 0.07 0.08 0.12 0.14 0.14 0.11 0.08 0.05 0.05 0.05 0.04 0.04 0.05 0.05
0.01 0.01 0.02 0.02 0.01 0.01 0.01 0.01 0.00 0.00 0.00 0.00 0.01 0.01 0.01 0.01 0.01 0.01 0.02 0.02 0.02 0.03 0.05 0.07 0.09 0.09 0.09 0.07 0.07 0.07 0.07 0.09 0.12 0.16 0.16 0.15 0.12 0.09 0.07 0.06 0.06 0.06 0.06
0.02 0.02 0.02 0.02 0.02 0.02 0.02 0.01 0.00 0.00 0.00 0.00 0.00 0.00 0.00 0.00 0.01 0.01 0.02 0.02 0.02 0.03 0.05 0.09 0.11 0.11 0.09 0.07 0.06 0.07 0.07 0.07 0.09 0.12 0.13 0.13 0.12 0.10 0.11 0.10 0.09 0.10 0.07
0.03 0.02 0.02 0.02 0.02 0.02 0.03 0.04 0.02 0.01 0.00 0.00 0.00 0.00 0.00 0.00 0.02 0.03 0.03 0.03 0.03 0.05 0.08 0.12 0.12 0.07 0.06 0.07 0.06 0.06 0.06 0.06 0.06 0.07 0.08 0.08 0.09 0.10 0.09 0.07 0.05 0.05 0.05
0.05 0.04 0.03 0.02 0.01 0.02 0.02 0.02 0.03 0.02 0.02 0.01 0.00 0.00 0.00 0.01 0.02 0.04 0.06 0.06 0.06 0.06 0.08 0.09 0.09 0.09 0.06 0.04 0.05 0.05 0.05 0.06 0.05 0.05 0.05 0.05 0.05 0.06 0.05 0.05 0.04 0.04 0.04
0.05 0.05 0.04 0.02 0.01 0.01 0.01 0.01 0.03 0.04 0.03 0.02 0.02 0.01 0.01 0.01 0.02 0.04 0.06 0.06 0.06 0.08 0.10 0.08 0.09 0.10 0.08 0.05 0.04 0.03 0.04 0.04 0.04 0.05 0.05 0.05 0.05 0.04 0.03 0.03 0.03 0.04 0.04
0.04 0.06 0.04 0.03 0.01 0.01 0.00 0.01 0.03 0.05 0.04 0.03 0.03 0.02 0.01 0.01 0.01 0.02 0.03 0.04 0.05 0.06 0.08 0.07 0.06 0.06 0.06 0.06 0.04 0.04 0.04 0.03 0.04 0.05 0.07 0.06 0.06 0.05 0.05 0.04 0.04 0.04 0.04
0.04 0.04 0.04 0.04 0.02 0.02 0.01 0.01 0.02 0.04 0.04 0.03 0.03 0.02 0.02 0.01 0.01 0.01 0.01 0.03 0.03 0.05 0.07 0.06 0.04 0.04 0.04 0.04 0.05 0.05 0.07 0.06 0.05 0.05 0.05 0.06 0.06 0.06 0.07 0.06 0.05 0.05 0.04
0.03 0.03 0.03 0.03 0.03 0.02 0.02 0.01 0.01 0.02 0.02 0.02 0.02 0.03 0.03 0.02 0.01 0.01 0.01 0.02 0.02 0.03 0.06 0.06 0.04 0.03 0.03 0.03 0.04 0.05 0.07 0.07 0.06 0.04 0.04 0.04 0.04 0.04 0.05 0.06 0.06 0.05 0.05
0.03 0.04 0.03 0.03 0.03 0.03 0.03 0.03 0.02 0.02 0.02 0.02 0.03 0.05 0.04 0.02 0.01 0.01 0.02 0.01 0.01 0.02 0.02 0.05 0.07 0.07 0.04 0.02 0.02 0.03 0.04 0.05 0.04 0.04 0.03 0.02 0.02 0.03 0.03 0.05 0.05 0.04 0.04
0.04 0.04 0.04 0.04 0.04 0.04 0.04 0.03 0.03 0.03 0.03 0.03 0.03 0.04 0.03 0.03 0.02 0.02 0.02 0.01 0.01 0.01 0.02 0.03 0.05 0.07 0.09 0.06 0.02 0.01 0.01 0.02 0.02 0.03 0.03 0.02 0.02 0.02 0.02 0.03 0.04 0.03 0.02
0.04 0.03 0.04 0.03 0.03 0.04 0.03 0.03 0.02 0.02 0.02 0.02 0.02 0.02 0.02 0.03 0.03 0.03 0.03 0.02 0.01 0.01 0.01 0.02 0.03 0.04 0.05 0.07 0.07 0.04 0.02 0.02 0.02 0.02 0.02 0.03 0.02 0.02 0.01 0.02 0.04 0.03 0.01
0.04 0.02 0.02 0.03 0.03 0.03 0.03 0.03 0.02 0.02 0.02 0.02 0.02 0.02 0.01 0.01 0.02 0.02 0.03 0.03 0.02 0.01 0.01 0.01 0.02 0.02 0.02 0.03 0.05 0.07 0.05 0.03 0.02 0.02 0.01 0.02 0.02 0.02 0.02 0.02 0.02 0.02 0.01
0.04 0.03 0.03 0.03 0.02 0.02 0.03 0.03 0.03 0.03 0.02 0.02 0.02 0.02 0.01 0.01 0.01 0.01 0.02 0.02 0.01 0.01 0.01 0.01 0.01 0.01 0.01 0.01 0.01 0.02 0.05 0.06 0.05 0.04 0.02 0.02 0.02 0.02 0.02 0.02 0.01 0.01 0.01
0.04 0.03 0.03 0.03 0.03 0.02 0.02 0.02 0.02 0.02 0.02 0.02 0.02 0.02 0.01 0.01 0.01 0.01 0.01 0.02 0.01 0.01 0.02 0.02 0.02 0.01 0.01 0.01 0.01 0.01 0.01 0.03 0.04 0.04 0.04 0.03 0.02 0.02 0.03 0.03 0.02 0.01 0.01
0.02 0.02 0.02 0.02 0.01 0.01 0.01 0.01 0.01 0.01 0.02 0.02 0.02 0.02 0.02 0.01 0.02 0.02 0.02 0.01 0.01 0.01 0.02 0.02 0.02 0.02 0.01 0.01 0.02 0.02 0.01 0.01 0.02 0.02 0.03 0.04 0.03 0.02 0.02 0.04 0.02 0.01 0.01
0.02 0.02 0.02 0.02 0.02 0.01 0.01 0.01 0.01 0.01 0.01 0.01 0.01 0.01 0.01 0.01 0.02 0.03 0.02 0.01 0.02 0.01 0.02 0.02 0.02 0.02 0.01 0.01 0.01 0.03 0.03 0.03 0.02 0.02 0.02 0.02 0.03 0.03 0.03 0.03 0.02 0.02 0.01
0.03 0.03 0.03 0.03 0.02 0.02 0.03 0.03 0.03 0.02 0.02 0.02 0.02 0.02 0.02 0.02 0.03 0.03 0.02 0.01 0.01 0.01 0.02 0.02 0.02 0.02 0.02 0.02 0.02 0.02 0.03 0.02 0.02 0.02 0.03 0.02 0.03 0.03 0.02 0.02 0.03 0.02 0.01
0.02 0.02 0.03 0.04 0.03 0.02 0.03 0.05 0.04 0.03 0.03 0.02 0.02 0.02 0.02 0.03 0.02 0.02 0.02 0.01 0.01 0.01 0.02 0.02 0.02 0.02 0.02 0.02 0.02 0.02 0.03 0.03 0.02 0.02 0.02 0.02 0.03 0.03 0.03 0.02 0.03 0.02 0.01
0.03 0.02 0.02 0.03 0.04 0.03 0.03 0.03 0.04 0.03 0.02 0.01 0.01 0.01 0.01 0.02 0.02 0.01 0.01 0.02 0.01 0.02 0.01 0.02 0.02 0.02 0.02 0.02 0.03 0.03 0.03 0.03 0.02 0.03 0.03 0.03 0.02 0.03 0.03 0.02 0.02 0.02 0.01
0.02 0.02 0.02 0.02 0.03 0.03 0.03 0.03 0.03 0.03 0.02 0.02 0.01 0.01 0.00 0.01 0.01 0.02 0.01 0.01 0.01 0.01 0.01 0.01 0.01 0.01 0.02 0.02 0.03 0.04 0.05 0.05 0.04 0.04 0.05 0.04 0.02 0.01 0.02 0.02 0.01 0.01 0.01
0.01 0.01 0.01 0.01 0.02 0.02 0.01 0.02 0.02 0.02 0.02 0.01 0.01 0.01 0.01 0.01 0.01 0.02 0.02 0.01 0.01 0.02 0.02 0.02 0.01 0.01 0.01 0.01 0.02 0.02 0.04 0.05 0.04 0.03 0.03 0.04 0.04 0.02 0.01 0.01 0.02 0.01 0.01
0.02 0.01 0.01 0.01 0.02 0.01 0.02 0.01 0.01 0.01 0.01 0.01 0.01 0.01 0.01 0.01 0.02 0.02 0.01 0.01 0.01 0.01 0.01 0.01 0.02 0.01 0.01 0.01 0.02 0.02 0.02 0.03 0.03 0.03 0.02 0.03 0.04 0.03 0.02 0.01 0.01 0.01 0.01
MSLP
1016.04 1015.88 1015.61 1015.26 1014.85 1014.41 1013.97 1013.53 1013.11 1012.70 1012.29 1011.87 1011.45 1011.05 1010.69 1010.40 1010.20 1010.12 1010.16 1010.28 1010.48 1010.73 1010.99 1011.25 1011.50 1011.75 1012.00 1012.26 1012.54 1012.84 1013.17 1013.49 1013.82 1014.14 1014.45 1014.75 1015.04 1015.33 1015.62 1015.90 1016.17 1016.41 1016.62
1016.30 1016.15 1015.91 1015.60 1015.25 1014.86 1014.45 1014.04 1013.62 1013.19 1012.74 1012.26 1011.77 1011.30 1010.87 1010.51 1010.26 1010.13 1010.12 1010.21 1010.39 1010.63 1010.90 1011.18 1011.46 1011.74 1012.03 1012.34 1012.65 1012.99 1013.34 1013.69 1014.04 1014.37 1014.68 1014.98 1015.26 1015.54 1015.82 1016.08 1016.33 1016.55 1016.74
1016.40 1016.27 1016.07 1015.82 1015.54 1015.22 1014.88 1014.51 1014.12 1013.68 1013.20 1012.69 1012.15 1011.62 1011.13 1010.71 1010.39 1010.20 1010.14 1010.18 1010.32 1010.53 1010.78 1011.06 1011.36 1011.67 1011.99 1012.34 1012.70 1013.08 1013.47 1013.85 1014.22 1014.57 1014.89 1015.19 1015.47 1015.74 1015.99 1016.24 1016.46 1016.67 1016.86
1016.39 1016.27 1016.12 1015.94 1015.74 1015.51 1015.25 1014.94 1014.59 1014.17 1013.69 1013.15 1012.59 1012.02 1011.48 1011.02 1010.65 1010.40 1010.27 1010.25 1010.33 1010.49 1010.71 1010.96 1011.25 1011.57 1011.91 1012.29 1012.70 1013.12 1013.55 1013.97 1014.37 1014.74 1015.08 1015.39 1015.67 1015.93 1016.17 1016.40 1016.62 1016.82 1017.00
1016.29 1016.20 1016.10 1016.00 1015.89 1015.75 1015.57 1015.34 1015.03 1014.65 1014.18 1013.65 1013.08 1012.50 1011.95 1011.45 1011.05 1010.75 1010.57 1010.49 1010.50 1010.59 1010.74 1010.95 1011.20 1011.50 1011.85 1012.24 1012.67 1013.12 1013.59 1014.05 1014.48 1014.89 1015.25 1015.58 1015.87 1016.13 1016.38 1016.60 1016.81 1017.01 1017.19
1016.17 1016.10 1016.05 1016.02 1015.99 1015.95 1015.85 1015.69 1015.45 1015.11 1014.68 1014.18 1013.63 1013.07 1012.53 1012.04 1011.63 1011.30 1011.08 1010.93 1010.87 1010.88 1010.95 1011.09 1011.28 1011.53 1011.85 1012.23 1012.66 1013.12 1013.61 1014.10 1014.56 1015.00 1015.40 1015.75 1016.06 1016.34 1016.60 1016.84 1017.05 1017.26 1017.45
1016.05 1015.99 1015.99 1016.02 1016.07 1016.10 1016.09 1016.00 1015.82 1015.54 1015.17 1014.72 1014.22 1013.71 1013.22 1012.77 1012.37 1012.05 1011.79 1011.60 1011.47 1011.40 1011.38 1011.42 1011.52 1011.70 1011.96 1012.29 1012.69 1013.14 1013.62 1014.12 1014.61 1015.08 1015.51 1015.89 1016.24 1016.55 1016.83 1017.08 1017.32 1017.54 1017.74
1015.93 1015.89 1015.92 1016.00 1016.11 1016.21 1016.26 1016.24 1016.13 1015.92 1015.61 1015.24 1014.82 1014.40 1013.98 1013.59 1013.25 1012.95 1012.69 1012.46 1012.27 1012.12 1012.00 1011.94 1011.94 1012.02 1012.18 1012.43 1012.77 1013.18 1013.64 1014.13 1014.62 1015.11 1015.57 1015.99 1016.38 1016.72 1017.03 1017.31 1017.57 1017.80 1018.02
1015.82 1015.78 1015.82 1015.93 1016.08 1016.23 1016.34 1016.38 1016.33 1016.20 1015.98 1015.70 1015.39 1015.06 1014.75 1014.45 1014.17 1013.92 1013.67 1013.43 1013.19 1012.96 1012.76 1012.59 1012.48 1012.44 1012.50 1012.65 1012.90 1013.24 1013.64 1014.10 1014.59 1015.08 1015.57 1016.03 1016.45 1016.83 1017.18 1017.49 1017.75 1018.00 1018.22
1015.68 1015.63 1015.67 1015.79 1015.96 1016.14 1016.29 1016.38 1016.40 1016.34 1016.22 1016.04 1015.84 1015.64 1015.43 1015.24 1015.04 1014.84 1014.62 1014.38 1014.11 1013.83 1013.54 1013.28 1013.07 1012.92 1012.86 1012.91 1013.06 1013.31 1013.65 1014.06 1014.52 1015.01 1015.51 1015.99 1016.45 1016.87 1017.24 1017.57 1017.85 1018.10 1018.31
1015.47 1015.40 1015.44 1015.56 1015.73 1015.92 1016.09 1016.23 1016.30 1016.32 1016.28 1016.21 1016.13 1016.04 1015.95 1015.85 1015.74 1015.60 1015.42 1015.19 1014.91 1014.60 1014.26 1013.93 1013.64 1013.40 1013.24 1013.18 1013.23 1013.38 1013.64 1013.99 1014.41 1014.88 1015.38 1015.88 1016.37 1016.82 1017.22 1017.56 1017.85 1018.09 1018.30
1015.17 1015.08 1015.10 1015.20 1015.36 1015.55 1015.74 1015.90 1016.02 1016.10 1016.15 1016.18 1016.20 1016.21 1016.23 1016.22 1016.19 1016.11 1015.97 1015.77 1015.50 1015.18 1014.83 1014.46 1014.12 1013.82 1013.59 1013.44 1013.40 1013.46 1013.64 1013.92 1014.29 1014.72 1015.21 1015.72 1016.22 1016.69 1017.11 1017.46 1017.75 1017.99 1018.18
1014.76 1014.66 1014.66 1014.73 1014.87 1015.05 1015.23 1015.40 1015.55 1015.69 1015.81 1015.92 1016.02 1016.13 1016.23 1016.30 1016.33 1016.31 1016.22 1016.05 1015.82 1015.53 1015.19 1014.84 1014.49 1014.17 1013.90 1013.69 1013.58 1013.56 1013.65 1013.85 1014.16 1014.55 1015.01 1015.51 1016.01 1016.49 1016.93 1017.30 1017.59 1017.83 1018.02
1014.28 1014.17 1014.14 1014.18 1014.29 1014.44 1014.60 1014.77 1014.94 1015.11 1015.28 1015.45 1015.63 1015.80 1015.96 1016.09 1016.18 1016.20 1016.16 1016.05 1015.87 1015.64 1015.36 1015.06 1014.75 1014.45 1014.17 1013.94 1013.77 1013.68 1013.69 1013.81 1014.04 1014.37 1014.79 1015.26 1015.76 1016.25 1016.70 1017.08 1017.40 1017.64 1017.84
1013.75 1013.63 1013.57 1013.59 1013.66 1013.77 1013.90 1014.06 1014.23 1014.41 1014.61 1014.82 1015.04 1015.26 1015.47 1015.64 1015.77 1015.84 1015.86 1015.81 1015.71 1015.56 1015.37 1015.16 1014.92 1014.67 1014.42 1014.19 1013.99 1013.84 1013.78 1013.81 1013.95 1014.20 1014.56 1014.99 1015.47 1015.96 1016.43 1016.84 1017.18 1017.45 1017.67
1013.21 1013.08 1013.01 1012.99 1013.02 1013.09 1013.18 1013.31 1013.46 1013.64 1013.85 1014.09 1014.34 1014.58 1014.82 1015.02 1015.19 1015.30 1015.37 1015.40 1015.39 1015.34 1015.27 1015.16 1015.03 1014.86 1014.66 1014.45 1014.23 1014.03 1013.89 1013.83 1013.87 1014.04 1014.32 1014.70 1015.16 1015.64 1016.12 1016.57 1016.95 1017.27 1017.53
1012.69 1012.56 1012.48 1012.42 1012.41 1012.42 1012.47 1012.56 1012.68 1012.85 1013.06 1013.30 1013.56 1013.83 1014.08 1014.31 1014.51 1014.66 1014.79 1014.89 1014.97 1015.04 1015.08 1015.11 1015.09 1015.01 1014.88 1014.70 1014.47 1014.23 1014.02 1013.86 1013.80 1013.87 1014.07 1014.39 1014.80 1015.28 1015.78 1016.26 1016.70 1017.07 1017.39
1012.20 1012.08 1011.97 1011.88 1011.82 1011.78 1011.77 1011.81 1011.90 1012.05 1012.25 1012.50 1012.76 1013.04 1013.31 1013.56 1013.78 1013.97 1014.15 1014.33 1014.50 1014.67 1014.84 1014.99 1015.08 1015.11 1015.05 1014.90 1014.68 1014.40 1014.12 1013.88 1013.72 1013.69 1013.80 1014.05 1014.43 1014.89 1015.40 1015.92 1016.41 1016.84 1017.22
1011.73 1011.60 1011.47 1011.34 1011.23 1011.13 1011.07 1011.06 1011.12 1011.24 1011.43 1011.67 1011.95 1012.23 1012.52 1012.78 1013.03 1013.26 1013.48 1013.72 1013.98 1014.25 1014.53 1014.78 1014.99 1015.11 1015.12 1015.02 1014.80 1014.50 1014.17 1013.85 1013.61 1013.49 1013.51 1013.70 1014.03 1014.48 1015.00 1015.55 1016.08 1016.57 1017.01
1011.23 1011.09 1010.93 1010.76 1010.59 1010.44 1010.32 1010.27 1010.29 1010.39 1010.57 1010.81 1011.09 1011.39 1011.69 1011.97 1012.24 1012.50 1012.77 1013.06 1013.38 1013.74 1014.11 1014.46 1014.76 1014.97 1015.05 1014.99 1014.80 1014.50 1014.13 1013.77 1013.46 1013.27 1013.23 1013.36 1013.65 1014.08 1014.60 1015.16 1015.72 1016.26 1016.74
1010.67 1010.51 1010.31 1010.09 1009.86 1009.65 1009.48 1009.38 1009.37 1009.46 1009.63 1009.88 1010.17 1010.48 1010.79 1011.09 1011.38 1011.66 1011.97 1012.30 1012.68 1013.10 1013.55 1013.98 1014.37 1014.65 1014.80 1014.80 1014.65 1014.37 1014.00 1013.62 1013.28 1013.05 1012.97 1013.05 1013.31 1013.71 1014.21 1014.78 1015.35 1015.90 1016.40
1010.00 1009.80 1009.55 1009.28 1008.99 1008.73 1008.52 1008.38 1008.35 1008.42 1008.59 1008.84 1009.14 1009.46 1009.79 1010.11 1010.42 1010.73 1011.06 1011.43 1011.86 1012.33 1012.84 1013.34 1013.80 1014.16 1014.38 1014.45 1014.35 1014.12 1013.78 1013.41 1013.08 1012.83 1012.73 1012.79 1013.02 1013.39 1013.87 1014.42 1014.98 1015.52 1016.02
1009.19 1008.94 1008.64 1008.31 1007.97 1007.66 1007.41 1007.25 1007.20 1007.26 1007.43 1007.69 1008.00 1008.34 1008.68 1009.02 1009.35 1009.68 1010.04 1010.45 1010.91 1011.43 1011.99 1012.56 1013.08 1013.51 1013.81 1013.95 1013.93 1013.76 1013.48 1013.16 1012.86 1012.63 1012.53 1012.58 1012.79 1013.14 1013.59 1014.10 1014.63 1015.14 1015.61
1008.24 1007.93 1007.57 1007.19 1006.81 1006.47 1006.19 1006.01 1005.95 1006.01 1006.18 1006.44 1006.76 1007.11 1007.47 1007.83 1008.18 1008.54 1008.93 1009.37 1009.88 1010.45 1011.06 1011.68 1012.26 1012.76 1013.14 1013.35 1013.41 1013.32 1013.12 1012.86 1012.61 1012.42 1012.34 1012.40 1012.60 1012.92 1013.34 1013.81 1014.30 1014.77 1015.20
1007.16 1006.79 1006.38 1005.96 1005.55 1005.18 1004.89 1004.71 1004.64 1004.70 1004.88 1005.14 1005.46 1005.82 1006.19 1006.57 1006.94 1007.34 1007.77 1008.26 1008.81 1009.43 1010.09 1010.77 1011.41 1011.98 1012.42 1012.71 1012.84 1012.83 1012.71 1012.52 1012.33 1012.19 1012.14 1012.20 1012.40 1012.70 1013.08 1013.52 1013.96 1014.39 1014.78
1005.97 1005.55 1005.11 1004.66 1004.23 1003.86 1003.57 1003.39 1003.32 1003.39 1003.56 1003.83 1004.15 1004.51 1004.90 1005.29 1005.70 1006.13 1006.62 1007.16 1007.77 1008.44 1009.16 1009.89 1010.59 1011.21 1011.70 1012.05 1012.25 1012.30 1012.24 1012.12 1011.98 1011.88 1011.86 1011.95 1012.14 1012.42 1012.79 1013.19 1013.60 1014.00 1014.35
Thickness
5714 5713 5713 5713 5713 5713 5713 5712 5712 5713 5712 5713 5713 5713 5713 5713 5714 5714 5715 5717 5718 5718 5719 5719 5719 5719 5718 5718 5718 5719 5720 5720 5720 5719 5719 5719 5719 5719 5719 5718 5718 5718 5717
5710 5709 5708 5708 5708 5708 5707 5707 5707 5707 5707 5706 5706 5706 5707 5708 5708 5708 5709 5710 5711 5712 5713 5713 5714 5713 5714 5713 5714 5714 5715 5715 5715 5715 5714 5714 5714 5715 5715 5714 5714 5714 5713
5706 5705 5703 5703 5702 5702 5702 5702 5702 5702 5701 5700 5700 5700 5700 5701 5702 5702 5703 5704 5705 5706 5707 5707 5707 5708 5708 5708 5709 5709 5709 5709 5709 5709 5709 5709 5709 5710 5710 5710 5710 5709 5709
5702 5701 5699 5698 5698 5698 5697 5697 5696 5695 5694 5693 5693 5693 5694 5695 5696 5696 5697 5698 5698 5699 5700 5701 5701 5702 5702 5703 5703 5703 5703 5703 5704 5704 5704 5704 5704 5705 5705 5705 5705 5705 5704
5697 5696 5695 5694 5693 5693 5692 5691 5689 5689 5687 5687 5687 5687 5687 5688 5689 5690 5691 5691 5692 5693 5693 5694 5695 5695 5696 5696 5697 5697 5697 5698 5698 5698 5698 5698 5698 5699 5699 5700 5700 5699 5699
5693 5692 5691 5689 5689 5688 5686 5685 5684 5683 5682 5682 5683 5681 5681 5682 5683 5683 5684 5685 5685 5686 5687 5688 5688 5688 5689 5690 5690 5691 5692 5692 5692 5692 5692 5693 5693 5693 5693 5693 5694 5694 5693
5690 5689 5687 5685 5684 5683 5681 5680 5678 5677 5676 5676 5676 5674 5675 5676 5677 5677 5677 5678 5679 5680 5680 5681 5682 5682 5682 5683 5684 5685 5686 5687 5687 5686 5686 5687 5687 5687 5687 5687 5688 5688 5687
5686 5685 5683 5681 5680 5678 5676 5675 5674 5671 5670 5670 5669 5667 5665 5666 5669 5671 5671 5671 5672 5673 5674 5675 5675 5676 5676 5677 5677 5678 5679 5680 5681 5681 5681 5681 5681 5681 5681 5681 5681 5682 5681
5681 5681 5679 5677 5675 5674 5672 5670 5669 5668 5665 5665 5665 5663 5659 5657 5658 5662 5663 5664 5665 5666 5667 5668 5668 5669 5669 5670 5670 5671 5673 5674 5675 5675 5675 5675 5675 5675 5675 5675 5675 5675 5675
5677 5676 5674 5673 5671 5669 5668 5667 5666 5665 5663 5660 5659 5659 5658 5657 5654 5653 5656 5657 5659 5659 5660 5661 5661 5662 5663 5663 5664 5665 5666 5667 5668 5669 5669 5670 5670 5670 5670 5670 5670 5670 5670
5673 5672 5670 5668 5666 5665 5664 5663 5662 5661 5660 5657 5655 5654 5652 5651 5650 5649 5647 5649 5651 5653 5654 5655 5655 5656 5657 5658 5658 5659 5660 5661 5662 5663 5663 5664 5664 5664 5664 5664 5664 5664 5664
5668 5667 5666 5664 5663 5661 5660 5659 5658 5657 5656 5654 5652 5651 5649 5647 5645 5644 5642 5642 5643 5646 5648 5649 5650 5651 5651 5652 5653 5653 5654 5655 5656 5657 5657 5657 5658 5658 5658 5658 5658 5658 5658
5663 5663 5662 5660 5659 5658 5656 5655 5654 5653 5652 5650 5648 5647 5646 5645 5644 5642 5640 5638 5637 5639 5641 5643 5644 5645 5646 5647 5647 5647 5648 5649 5650 5650 5651 5651 5651 5652 5652 5652 5652 5652 5652
5660 5659 5658 5656 5655 5654 5653 5651 5650 5649 5648 5646 5645 5643 5641 5641 5640 5639 5637 5635 5633 5632 5634 5636 5639 5639 5640 5641 5641 5642 5642 5643 5643 5644 5644 5645 5645 5645 5645 5645 5645 5646 5646
5657 5655 5654 5652 5651 5650 5649 5647 5645 5644 5643 5642 5640 5638 5637 5636 5635 5635 5634 5633 5631 5628 5628 5630 5632 5634 5634 5634 5635 5636 5637 5637 5637 5638 5638 5638 5638 5638 5639 5639 5639 5639 5639
5653 5651 5650 5648 5647 5646 5645 5643 5641 5640 5638 5637 5635 5633 5631 5630 5629 5629 5629 5628 5628 5626 5624 5625 5626 5627 5628 5628 5629 5630 5631 5631 5631 5632 5632 5632 5632 5632 5633 5633 5633 5633 5633
5648 5647 5645 5644 5642 5641 5640 5638 5636 5635 5633 5631 5630 5628 5626 5625 5624 5623 5623 5623 5621 5620 5619 5618 5619 5620 5621 5622 5623 5624 5624 5625 5626 5626 5627 5626 5626 5627 5627 5627 5627 5627 5627
5644 5642 5640 5639 5637 5636 5635 5633 5631 5630 5628 5626 5624 5622 5621 5620 5619 5618 5618 5617 5616 5615 5614 5612 5613 5613 5614 5615 5616 5617 5618 5619 5619 5620 5620 5620 5620 5620 5621 5621 5621 5621 5621
5639 5637 5635 5633 5632 5631 5629 5628 5626 5625 5623 5621 5619 5617 5616 5615 5613 5613 5612 5611 5610 5610 5608 5607 5607 5606 5607 5608 5608 5609 5610 5611 5612 5613 5614 5614 5614 5614 5614 5614 5614 5614 5614
5633 5631 5630 5628 5627 5625 5624 5622 5620 5619 5617 5616 5615 5613 5612 5610 5609 5608 5607 5605 5604 5602 5601 5600 5600 5599 5599 5600 5600 5601 5602 5603 5604 5605 5607 5607 5607 5607 5607 5608 5608 5608 5608
5628 5626 5623 5622 5621 5619 5618 5616 5614 5613 5611 5609 5608 5607 5607 5606 5605 5604 5603 5600 5598 5596 5594 5592 5592 5592 5591 5591 5592 5593 5594 5594 5596 5597 5598 5599 5600 5601 5601 5601 5602 5602 5602
5621 5619 5617 5615 5613 5613 5613 5611 5609 5606 5605 5603 5602 5601 5600 5600 5599 5598 5597 5595 5593 5591 5588 5586 5585 5585 5585 5585 5585 5585 5585 5586 5587 5589 5590 5591 5592 5593 5594 5595 5595 5595 5595
5614 5612 5610 5608 5607 5606 5605 5604 5603 5600 5598 5596 5595 5593 5593 5593 5591 5590 5589 5588 5586 5586 5586 5583 5581 5581 5580 5581 5579 5578 5578 5578 5580 5581 5581 5583 5584 5585 5587 5588 5588 5588 5588
5607 5606 5604 5602 5599 5599 5599 5598 5596 5593 5591 5589 5588 5587 5585 5585 5584 5582 5581 5579 5578 5578 5578 5577 5577 5577 5577 5576 5575 5575 5573 5572 5573 5573 5574 5574 5576 5577 5579 5580 5580 5580 5580
5601 5599 5597 5594 5592 5591 5591 5590 5589 5586 5583 5582 5581 5580 5579 5577 5577 5575 5573 5571 5569 5569 5570 5569 5570 5570 5569 5569 5568 5565 5564 5564 5564 5565 5565 5566 5567 5568 5569 5571 5571 5572 5573
5593 5591 5589 5587 5585 5584 5584 5583 5581 5578 5576 5574 5573 5572 5572 5570 5569 5567 5565 5562 5561 5561 5560 5559 5560 5560 5560 5560 5559 5559 5558 5557 5557 5557 5558 5558 5558 5558 5560 5562 5563 5563 5563